Total_Precipitation_Accumulation
0.00 0.00 0.00 0.00 0.00 0.00 0.00 0.00 0.00 0.01 0.00 0.00 0.00 0.00 0.00 0.00 0.00 0.00 0.00 0.00 0.00 0.00 0.01 0.05 0.01 0.02 0.07 0.15 0.17 0.11 0.03 0.01 0.00 0.00 0.01 0.01 0.01 0.00 0.00 0.03 0.05 0.01 0.04
0.00 0.00 0.00 0.00 0.00 0.00 0.01 0.01 0.00 0.01 0.00 0.00 0.00 0.00 0.00 0.00 0.00 0.00 0.03 0.03 0.02 0.02 0.03 0.13 0.04 0.09 0.17 0.30 0.50 0.09 0.03 0.00 0.00 0.01 0.01 0.01 0.05 0.05 0.03 0.08 0.06 0.05 0.10
0.00 0.00 0.00 0.00 0.00 0.00 0.00 0.02 0.01 0.00 0.00 0.01 0.00 0.00 0.00 0.00 0.00 0.04 0.04 0.07 0.10 0.04 0.02 0.03 0.06 0.11 0.12 0.16 0.13 0.00 0.00 0.03 0.09 0.07 0.05 0.00 0.02 0.03 0.02 0.09 0.02 0.03 0.04
0.00 0.00 0.00 0.00 0.00 0.00 0.00 0.00 0.00 0.00 0.00 0.00 0.00 0.00 0.00 0.00 0.01 0.05 0.09 0.16 0.13 0.05 0.02 0.04 0.08 0.07 0.02 0.01 0.03 0.01 0.00 0.03 0.14 0.26 0.09 0.00 0.00 0.05 0.02 0.00 0.00 0.03 0.02
0.00 0.00 0.00 0.00 0.00 0.00 0.00 0.00 0.00 0.00 0.00 0.00 0.00 0.00 0.00 0.00 0.00 0.01 0.05 0.07 0.12 0.06 0.04 0.02 0.07 0.06 0.03 0.02 0.07 0.08 0.01 0.02 0.27 0.57 0.04 0.00 0.00 0.06 0.04 0.02 0.01 0.04 0.08
0.00 0.00 0.00 0.00 0.00 0.00 0.00 0.00 0.00 0.00 0.00 0.00 0.00 0.00 0.00 0.00 0.01 0.03 0.06 0.04 0.02 0.04 0.06 0.04 0.04 0.06 0.04 0.06 0.08 0.02 0.00 0.01 0.07 0.05 0.01 0.00 0.00 0.02 0.08 0.11 0.08 0.03 0.08
0.00 0.00 0.00 0.00 0.00 0.00 0.00 0.00 0.00 0.00 0.00 0.00 0.00 0.00 0.00 0.00 0.00 0.00 0.01 0.03 0.09 0.04 0.04 0.03 0.06 0.08 0.06 0.05 0.02 0.02 0.00 0.00 0.00 0.00 0.07 0.05 0.00 0.05 0.04 0.05 0.02 0.01 0.05
0.00 0.00 0.00 0.00 0.00 0.00 0.00 0.00 0.00 0.00 0.00 0.00 0.01 0.01 0.01 0.00 0.00 0.00 0.00 0.00 0.10 0.06 0.07 0.03 0.02 0.02 0.04 0.03 0.00 0.02 0.01 0.00 0.00 0.00 0.01 0.01 0.01 0.03 0.01 0.01 0.00 0.01 0.04
0.00 0.00 0.00 0.00 0.00 0.00 0.00 0.01 0.00 0.00 0.00 0.00 0.09 0.03 0.02 0.02 0.03 0.00 0.00 0.00 0.00 0.08 0.04 0.03 0.04 0.03 0.04 0.02 0.01 0.00 0.01 0.01 0.01 0.00 0.00 0.00 0.00 0.08 0.02 0.00 0.00 0.03 0.06
0.00 0.00 0.00 0.00 0.00 0.00 0.00 0.03 0.02 0.00 0.00 0.00 0.05 0.05 0.09 0.05 0.16 0.01 0.00 0.00 0.00 0.03 0.03 0.00 0.00 0.01 0.02 0.02 0.02 0.01 0.01 0.00 0.00 0.00 0.00 0.00 0.02 0.09 0.03 0.00 0.01 0.02 0.03
0.00 0.00 0.00 0.00 0.00 0.00 0.00 0.01 0.06 0.02 0.02 0.01 0.00 0.01 0.02 0.06 0.06 0.15 0.07 0.01 0.00 0.00 0.00 0.00 0.00 0.00 0.00 0.00 0.00 0.00 0.02 0.24 0.08 0.01 0.02 0.01 0.00 0.01 0.04 0.05 0.08 0.02 0.04
0.00 0.00 0.00 0.00 0.00 0.00 0.00 0.00 0.04 0.03 0.01 0.05 0.04 0.00 0.09 0.15 0.01 0.04 0.04 0.01 0.01 0.00 0.00 0.00 0.00 0.00 0.00 0.00 0.00 0.00 0.06 0.61 0.70 0.36 0.06 0.02 0.01 0.01 0.00 0.02 0.07 0.11 0.03
0.00 0.00 0.00 0.00 0.00 0.00 0.00 0.00 0.01 0.02 0.01 0.00 0.04 0.00 0.04 0.08 0.02 0.01 0.00 0.01 0.00 0.00 0.00 0.00 0.00 0.00 0.01 0.00 0.03 0.03 0.06 0.16 1.09 0.56 0.08 0.03 0.01 0.01 0.00 0.00 0.02 0.02 0.04
0.00 0.00 0.00 0.00 0.00 0.00 0.00 0.00 0.00 0.00 0.00 0.00 0.00 0.00 0.00 0.00 0.01 0.00 0.00 0.00 0.00 0.00 0.01 0.02 0.04 0.05 0.09 0.10 0.00 0.03 0.07 0.09 0.21 0.17 0.04 0.06 0.02 0.01 0.00 0.00 0.00 0.00 0.00
0.00 0.00 0.00 0.00 0.00 0.00 0.00 0.00 0.00 0.00 0.00 0.00 0.00 0.00 0.00 0.00 0.00 0.00 0.00 0.00 0.00 0.00 0.00 0.01 0.04 0.04 0.17 0.28 0.01 0.00 0.03 0.08 0.07 0.09 0.06 0.06 0.07 0.04 0.06 0.00 0.00 0.00 0.00
0.00 0.00 0.00 0.00 0.00 0.00 0.00 0.00 0.00 0.00 0.00 0.00 0.00 0.00 0.00 0.00 0.00 0.00 0.00 0.00 0.00 0.00 0.00 0.02 0.10 0.08 0.15 0.15 0.09 0.00 0.00 0.04 0.12 0.09 0.05 0.02 0.06 0.09 0.06 0.00 0.00 0.00 0.00
0.00 0.00 0.00 0.00 0.00 0.00 0.00 0.00 0.00 0.00 0.00 0.00 0.00 0.00 0.00 0.00 0.00 0.01 0.04 0.02 0.01 0.01 0.01 0.03 0.09 0.16 0.20 0.30 0.37 0.11 0.04 0.04 0.09 0.05 0.07 0.07 0.06 0.12 0.09 0.00 0.00 0.00 0.00
0.00 0.00 0.00 0.00 0.00 0.00 0.00 0.00 0.00 0.00 0.00 0.00 0.00 0.00 0.00 0.00 0.02 0.17 0.27 0.27 0.21 0.11 0.11 0.14 0.23 0.28 0.31 0.24 0.27 0.28 0.22 0.06 0.02 0.02 0.09 0.23 0.26 0.03 0.05 0.02 0.01 0.00 0.02
0.00 0.00 0.00 0.00 0.00 0.00 0.00 0.00 0.00 0.00 0.00 0.00 0.00 0.00 0.00 0.01 0.04 0.22 0.38 0.36 0.23 0.03 0.19 0.46 0.25 0.27 0.52 0.48 0.29 0.24 0.20 0.18 0.02 0.04 0.18 0.24 0.13 0.01 0.00 0.00 0.01 0.01 0.01
0.00 0.00 0.00 0.00 0.00 0.00 0.00 0.00 0.00 0.00 0.00 0.00 0.00 0.00 0.00 0.06 0.02 0.13 0.19 0.39 0.40 0.15 0.36 0.50 0.41 0.14 0.32 0.56 0.48 0.34 0.18 0.12 0.03 0.00 0.11 0.30 0.07 0.00 0.04 0.02 0.01 0.00 0.00
0.00 0.00 0.00 0.00 0.01 0.00 0.00 0.00 0.00 0.00 0.00 0.00 0.00 0.00 0.00 0.01 0.01 0.05 0.10 0.18 0.24 0.27 0.30 0.26 0.31 0.17 0.24 0.57 0.60 0.38 0.30 0.37 0.15 0.00 0.07 0.29 0.18 0.01 0.05 0.10 0.00 0.00 0.00
0.00 0.00 0.00 0.00 0.00 0.00 0.00 0.00 0.00 0.00 0.00 0.00 0.00 0.00 0.00 0.00 0.00 0.02 0.05 0.03 0.03 0.19 0.05 0.02 0.10 0.16 0.43 0.45 0.27 0.30 0.36 0.30 0.35 0.05 0.04 0.18 0.23 0.20 0.08 0.05 0.00 0.00 0.00
0.00 0.00 0.00 0.00 0.00 0.00 0.00 0.02 0.09 0.09 0.08 0.00 0.00 0.00 0.00 0.00 0.00 0.00 0.00 0.00 0.02 0.11 0.12 0.04 0.05 0.09 0.41 0.43 0.29 0.37 0.25 0.24 0.22 0.31 0.18 0.11 0.23 0.34 0.09 0.04 0.01 0.00 0.00
0.00 0.00 0.00 0.00 0.00 0.00 0.00 0.04 0.06 0.02 0.04 0.01 0.00 0.00 0.01 0.00 0.00 0.00 0.00 0.00 0.01 0.03 0.07 0.17 0.14 0.08 0.10 0.25 0.22 0.20 0.23 0.31 0.16 0.28 0.39 0.28 0.23 0.26 0.16 0.01 0.00 0.00 0.00
0.00 0.00 0.00 0.00 0.00 0.01 0.01 0.00 0.06 0.01 0.01 0.01 0.00 0.02 0.00 0.00 0.01 0.01 0.00 0.00 0.01 0.02 0.07 0.11 0.14 0.12 0.06 0.17 0.28 0.36 0.34 0.38 0.29 0.23 0.35 0.14 0.14 0.18 0.17 0.01 0.00 0.00 0.00
0.00 0.00 0.00 0.00 0.00 0.00 0.01 0.01 0.06 0.16 0.12 0.29 0.15 0.08 0.07 0.02 0.02 0.04 0.05 0.02 0.01 0.01 0.05 0.17 0.19 0.22 0.23 0.21 0.26 0.32 0.20 0.20 0.27 0.28 0.21 0.25 0.03 0.02 0.10 0.03 0.00 0.00 0.00